Location: Unspecified
(49.8670°N, 0.0000°E)
Time: 13:00:38
(UTC+00:00)

Vanguard 1 - Pass Details

Date: 22 June 2019
Orbit: 653 x 3830 km, 34.3° (Epoch: 20 July)

Event Time Altitude Azimuth Distance (km) Brightness Sun altitude
Rises 08:14:51 0° 264° (W) 4,996 13.2 38.9°
Reaches altitude 10° 08:22:02 10° 231° (SW) 3,142 12.4 40.1°
Maximum altitude 08:23:24 11° 220° (SW) 2,945 12.4 40.3°
Drops below altitude 10° 08:24:41 10° 209° (SSW) 2,845 12.4 40.5°
Sets 08:29:33 0° 169° (S) 3,306 13.0 41.2°
